Weather History for York, PA

Change the Weather History Date:

Wednesday, March 27, 2013

  Actual Average Record
Temperature  
Mean Temperature 40 °F -  
Max Temperature 48 °F 0 °F 82 °F (1998)
Min Temperature 35 °F - 14 °F (2014)
Degree Days  
Heating Degree Days 24    
Moisture  
Dew Point 25 °F    
Average Humidity 56    
Maximum Humidity 70    
Minimum Humidity 39    
Precipitation  
Precipitation 0.00 in - - ()
Sea Level Pressure  
Sea Level Pressure 30.03 in    
Wind  
Wind Speed 9 mph (WNW)    
Max Wind Speed 18 mph    
Max Gust Speed 28 mph    
Visibility 10 miles    
Events      
Averages and records for this station are not official NWS values.
T = Trace of Precipitation, MM = Missing Value Source: NWS Daily Summary

Daily Weather History Graph

Daily Weather History Graph

Search for Another Location

Airport:

Trip Planner

Search our weather history database for the weather conditions in past years. The results will help you decide how hot, cold, wet, or windy it might be!

Date:

Astronomy

Mar. 27, 2013 Rise Set
Actual Time 6:59 AM EDT 7:26 PM EDT
Civil Twilight 6:32 AM EDT 7:54 PM EDT
Nautical Twilight 6:00 AM EDT 8:26 PM EDT
Astronomical Twilight 5:27 AM EDT 8:58 PM EDT
Moon 8:08 PM EDT 6:49 AM EDT
Length of Visible Light 13h 21m
Length of Day
12h 27m
Full, 100% of the Moon is Illuminated
Mar 27
Full
Apr 3
Last Quarter
Apr 10
New
Apr 18
First Quarter
Apr 25
Full

Hourly Weather History & Observations

Time (EDT) Temp. Windchill Dew Point Humidity Pressure Visibility Wind Dir Wind Speed Gust Speed Precip Events Conditions
12:53 AM 37.9 °F 32.7 °F 28.0 °F 68% 29.98 in 10.0 mi West 6.9 mph - N/A   Clear
1:53 AM 37.0 °F 32.4 °F 28.0 °F 70% 29.98 in 10.0 mi West 5.8 mph - N/A   Partly Cloudy
2:53 AM 37.0 °F 31.6 °F 28.0 °F 70% 29.97 in 10.0 mi WNW 6.9 mph - N/A   Overcast
3:53 AM 37.0 °F 32.4 °F 27.0 °F 67% 29.97 in 10.0 mi West 5.8 mph - N/A   Overcast
4:53 AM 35.1 °F 32.2 °F 26.1 °F 70% 29.97 in 10.0 mi West 3.5 mph - N/A   Mostly Cloudy
5:53 AM 37.0 °F 31.6 °F 27.0 °F 67% 29.99 in 10.0 mi West 6.9 mph - N/A   Overcast
6:53 AM 37.0 °F 31.0 °F 25.0 °F 62% 30.00 in 10.0 mi West 8.1 mph - N/A   Scattered Clouds
7:53 AM 37.0 °F 31.0 °F 26.1 °F 65% 30.03 in 10.0 mi WNW 8.1 mph - N/A   Mostly Cloudy
8:53 AM 39.9 °F 35.8 °F 27.0 °F 60% 30.04 in 10.0 mi West 5.8 mph - N/A   Mostly Cloudy
9:53 AM 41.0 °F 33.9 °F 27.0 °F 57% 30.04 in 10.0 mi WNW 12.7 mph 19.6 mph N/A   Overcast
10:53 AM 43.0 °F 35.1 °F 26.1 °F 51% 30.04 in 10.0 mi WNW 17.3 mph 24.2 mph N/A   Overcast
11:53 AM 46.0 °F 39.0 °F 27.0 °F 47% 30.04 in 10.0 mi WNW 17.3 mph 26.5 mph N/A   Overcast
12:53 PM 45.0 °F 37.4 °F 24.1 °F 44% 30.03 in 10.0 mi NW 18.4 mph 27.6 mph N/A   Overcast
1:53 PM 46.0 °F 39.3 °F 25.0 °F 44% 30.03 in 10.0 mi WNW 16.1 mph 23.0 mph N/A   Overcast
2:53 PM 46.0 °F 39.0 °F 24.1 °F 42% 30.01 in 10.0 mi NW 17.3 mph 21.9 mph N/A   Overcast
3:53 PM 46.0 °F 40.6 °F 21.9 °F 39% 30.01 in 10.0 mi WNW 11.5 mph 25.3 mph 0.00 in   Overcast
4:53 PM 46.0 °F 40.6 °F 26.1 °F 46% 30.02 in 10.0 mi WNW 11.5 mph - N/A   Overcast
5:53 PM 45.0 °F 37.6 °F 24.1 °F 44% 30.03 in 10.0 mi West 17.3 mph 25.3 mph N/A   Overcast
6:53 PM 43.0 °F 35.7 °F 23.0 °F 45% 30.05 in 10.0 mi WNW 15.0 mph 26.5 mph N/A   Scattered Clouds
7:53 PM 42.1 °F 35.7 °F 23.0 °F 47% 30.06 in 10.0 mi WNW 11.5 mph - N/A   Clear
8:53 PM 39.0 °F 34.0 °F 23.0 °F 53% 30.08 in 10.0 mi WNW 6.9 mph - N/A   Scattered Clouds
9:53 PM 39.0 °F 34.0 °F 24.1 °F 55% 30.09 in 10.0 mi WNW 6.9 mph - N/A   Partly Cloudy
10:53 PM 37.9 °F 35.5 °F 24.1 °F 57% 30.09 in 10.0 mi West 3.5 mph - N/A   Mostly Cloudy
11:53 PM 36.0 °F 31.1 °F 25.0 °F 64% 30.09 in 10.0 mi West 5.8 mph - N/A   Clear